Regional Weather Roundup
Issued by NWS Cleveland, OH

Home | Current Version | Previous Version | Graphics & Text | Print | Product List | Glossary On
Versions: 1 2 3 4 5 6 7 8 9 10 11 12 13 14 15 16 17 18 19 20 21 22 23 24 25 26 27 28 29 30 31 32 33 34 35 36 37 38 39 40 41 42 43 44 45 46 47 48 49 50
000
ASUS41 KCLE 022010
RWRCLE
OHIO REGIONAL WEATHER ROUNDUP
NATIONAL WEATHER SERVICE WILMINGTON, OH
400 PM EDT MON MAY 02 2016

NOTE: "FAIR" INDICATES FEW OR NO CLOUDS BELOW 12,000 FEET WITH NO
SIGNIFICANT WEATHER AND/OR OBSTRUCTIONS TO VISIBILITY.

OHZ001>008-015>018-024>027-034-035-043-044-022100-
   NORTHWEST OHIO

CITY           SKY/WX    TMP DP  RH WIND       PRES   REMARKS
DEFIANCE       CLOUDY    52  47  83 N7        30.00F
FINDLAY        CLOUDY    53  43  68 NE8       30.00S
TOLEDO EXPRESS CLOUDY    51  45  79 E8        30.02S
TOLEDO EXEC    CLOUDY    52  45  77 NE7       30.04S
LIMA           CLOUDY    52  48  86 NE7       29.99F
$$

OHZ009>014-019>023-028>033-038-089-022100-
   NORTHEAST OHIO

CITY           SKY/WX    TMP DP  RH WIND       PRES   REMARKS
CLE-HOPKINS    CLOUDY    50  44  80 NE6       30.02F
CLE-LAKEFRONT  PTSUNNY   50  45  83 NE9       30.00F
CUY CO. ARPT   CLOUDY    52  46  82 E7        30.01R
LORAIN-ELYRIA  CLOUDY    50  43  77 NE5       30.01F
ASHTABULA      CLOUDY    49  44  83 N6        30.00F
AKRON-CANTON   CLOUDY    53  46  77 N7        29.98F
WOOSTER        CLOUDY    51  45  79 N7        29.98F
MANSFIELD      CLOUDY    50  46  86 NE5       29.99S
YOUNGSTOWN     CLOUDY    51  45  79 N13       29.96F
$$

OHZ042-051>053-060>062-070>072-077>081-022100-
  SOUTHWEST OHIO

CITY           SKY/WX    TMP DP  RH WIND       PRES   REMARKS
CINC-COVINGTON CLOUDY    63  51  65 W7        29.94F
CINC-LUNKEN    FAIR      65  54  67 SW8       29.93F
HAMILTON       PTSUNNY   66  52  60 W7        29.94F
DAYTON         CLOUDY    58  52  80 N12       29.97F
WRIGHT-PAT AFB PTSUNNY   60  53  78 N8        29.96S
DAYTON GENERAL PTSUNNY   62  52  69 N8        29.92F
WILMINGTON     FAIR      63  55  75 N9        29.94F
$$

OHZ036-037-039>041-045>050-054>059-063>069-073>076-082>088-022100-
  CENTRAL AND SOUTHEAST OHIO

CITY           SKY/WX    TMP DP  RH WIND       PRES   REMARKS
COLUMBUS       PTSUNNY   59  52  77 N12       29.95S
OSU AIRPORT    CLOUDY    58  52  80 N10       29.96R
BOLTON FIELD   PTSUNNY   61  54  77 NW9       29.96S
RICKENBACK AFB PTSUNNY   62  53  72 N8        29.94S
NEWARK         PTSUNNY   64  53  67 NW9       29.93F
MARION         CLOUDY    52  47  83 N10       30.00R
LANCASTER      FAIR      64  54  69 NW12      29.94F
ZANESVILLE     FAIR      67  55  65 NW8       29.92F
NEW PHILLY     CLOUDY    57  49  74 NW10      29.96F
$$




USA.gov is the U.S. government's official web portal to all federal, state and local government web resources and services.